Weather History for KSMQ - January, 2013

Change the Weather History Date:

Wednesday, January 23, 2013

  Actual Average (KEWR) Record (KEWR)
Temperature  
Mean Temperature 14 °F 32 °F  
Max Temperature 19 °F 39 °F 62 °F (1957)
Min Temperature 8 °F 24 °F -4 °F (1936)
Degree Days  
Heating Degree Days 52 34  
Month to date heating degree days 772  
Since 1 July heating degree days 2522  
Cooling Degree Days 0 0  
Month to date cooling degree days 0  
Year to date cooling degree days 0  
Moisture  
Dew Point -2 °F    
Average Humidity 53    
Maximum Humidity 84    
Minimum Humidity 36    
Precipitation  
Precipitation 0.00 in 0.11 in 2.30 in (1998)
Month to date precipitation 2.68  
Year to date precipitation 2.68  
Snow  
Snow 0.00 in 0.20 in 4.50 in (2005)
Month to date snowfall 5.7  
Since 1 July snowfall 11.5  
Snow Depth -    
Sea Level Pressure  
Sea Level Pressure 30.22 in    
Wind  
Wind Speed 6 mph (WNW)    
Max Wind Speed 12 mph    
Max Gust Speed 21 mph    
Visibility 10 miles    
Events      
T = Trace of Precipitation, MM = Missing Value Source: NWS Daily Summary

Daily Weather History Graph

Daily Weather History Graph

Search for Another Location

Airport or City:

Trip Planner

Search our weather history database for the weather conditions in past years. The results will help you decide how hot, cold, wet, or windy it might be!

Date:

Astronomy

Jan. 23, 2013 Rise Set
Actual Time 7:15 AM EST 5:05 PM EST
Civil Twilight 6:46 AM EST 5:35 PM EST
Nautical Twilight 6:13 AM EST 6:08 PM EST
Astronomical Twilight 5:40 AM EST 6:41 PM EST
Moon 2:14 PM EST (1/23) 4:25 AM EST (1/23)
Length of Visible Light 10h 49m
Length of Day
9h 50m
Waxing Gibbous, 89% of the Moon is Illuminated
Jan 23
Waxing Gibbous
Jan 26
Full
Feb 3
Last Quarter
Feb 10
New
Feb 17
First Quarter

Hourly Weather History & Observations

Time (EST) Temp. Windchill Dew Point Humidity Pressure Visibility Wind Dir Wind Speed Gust Speed Precip Events Conditions
12:53 AM 12.0 °F 2.7 °F -7.1 °F 42% 30.21 in 10.0 mi WNW 5.8 mph - N/A   Clear
1:53 AM 12.0 °F 1.5 °F -6.0 °F 44% 30.22 in 10.0 mi Variable 6.9 mph - N/A   Clear
2:53 AM 10.9 °F 1.4 °F -5.1 °F 49% 30.23 in 10.0 mi WNW 5.8 mph - N/A   Clear
3:53 AM 10.9 °F 1.4 °F -4.0 °F 51% 30.23 in 10.0 mi West 5.8 mph - N/A   Clear
4:53 AM 10.9 °F 4.7 °F -4.0 °F 51% 30.23 in 10.0 mi Variable 3.5 mph - N/A   Clear
5:53 AM 10.9 °F 0.2 °F -2.9 °F 54% 30.24 in 10.0 mi WNW 6.9 mph - N/A   Clear
6:53 AM 10.0 °F 3.6 °F -2.0 °F 58% 30.25 in 10.0 mi WNW 3.5 mph - N/A   Clear
7:53 AM 10.9 °F 0.2 °F -0.9 °F 59% 30.25 in 10.0 mi West 6.9 mph - N/A   Clear
8:53 AM 12.9 °F 2.6 °F -0.0 °F 56% 30.26 in 10.0 mi Variable 6.9 mph - N/A   Clear
9:53 AM 16.0 °F 3.6 °F -0.9 °F 47% 30.27 in 10.0 mi West 10.4 mph - N/A   Clear
10:53 AM 18.0 °F 7.7 °F -2.0 °F 41% 30.25 in 10.0 mi West 8.1 mph - N/A   Partly Cloudy
11:53 AM 19.0 °F 10.0 °F -4.0 °F 36% 30.22 in 10.0 mi Variable 6.9 mph 20.7 mph N/A   Overcast
12:53 PM 18.0 °F 5.4 °F -2.0 °F 41% 30.20 in 10.0 mi NW 11.5 mph 18.4 mph N/A   Overcast
1:53 PM 18.0 °F 6.9 °F -2.9 °F 40% 30.18 in 10.0 mi West 9.2 mph 16.1 mph N/A   Overcast
2:53 PM 18.0 °F 5.4 °F -2.9 °F 40% 30.19 in 10.0 mi NW 11.5 mph 17.3 mph N/A   Mostly Cloudy
3:53 PM 19.0 °F 7.5 °F -4.0 °F 36% 30.19 in 10.0 mi WNW 10.4 mph 17.3 mph N/A   Overcast
4:53 PM 17.1 °F 7.6 °F -4.0 °F 39% 30.19 in 10.0 mi Variable 6.9 mph - N/A   Mostly Cloudy
5:53 PM 16.0 °F 7.4 °F -2.0 °F 45% 30.20 in 10.0 mi Variable 5.8 mph - N/A   Clear
6:53 PM 14.0 °F - -0.0 °F 54% 30.21 in 10.0 mi Calm Calm - N/A   Clear
7:53 PM 10.9 °F - 3.0 °F 70% 30.21 in 10.0 mi Calm Calm - N/A   Clear
8:53 PM 9.0 °F - 3.0 °F 77% 30.20 in 10.0 mi Calm Calm - N/A   Clear
9:53 PM 8.1 °F - 1.9 °F 76% 30.21 in 10.0 mi Calm Calm - N/A   Partly Cloudy
10:53 PM 8.1 °F - 3.9 °F 83% 30.20 in 10.0 mi Calm Calm - N/A   Overcast
11:53 PM 9.0 °F - 5.0 °F 84% 30.19 in 10.0 mi Calm Calm - N/A   Mostly Cloudy